sat.trackr.live / text

‹ back to catalog

STARLINK-31027

NORAD 58720 · 2024-002R

PAYLOAD ACTIVE UNKNOWN

§ Identity

Operator
Country
US
Launch date
2024-01-03
Launch site
AFWTR
Launch vehicle
Mass (kg)
RCS (m²)

Purposes: comms

External: N2YO · Heavens-Above · Gunter

§ Orbital elements

Epoch: 2026-09-20T13:12:05.304960Z

Period
89.47 min
Inclination
53.1264°
Eccentricity
0.0012040
Mean motion
16.09502058 rev/d
Perigee alt
240.2 km
Apogee alt
256.2 km
Semi-major
6,626.3 km
B*
8.3838e-4
RAAN
341.3825°
Arg perigee
343.9332°
Mean anomaly
16.1319°
Rev number
15,272

§ Raw data

STARLINK-310271 58720U 24002R   26263.55006140  .00789490  35029-3  83838-3 0  99922 58720  53.1264 341.3825 0012040 343.9332  16.1319 16.09502058152729

JSON: /api/v1/satellites/58720 · /tle

For live sub-satellite position, see the globe view (requires WebGL).

§ Visibility from observer

Set your observer location to see the next 7 days of passes ≥ 10°. The values pass through the URL so the page stays shareable.

No JS? Fill the form by hand. The geolocation button needs JavaScript.